Location: Unspecified
(0.0000°N, 0.0000°E)
Time: 04:21:14
(UTC+00:00)

BEESAT - Pass Details

Date: 28 May 2019
Orbit: 700 x 709 km, 98.6° (Epoch: 24 June)

Event Time Altitude Azimuth Distance (km) Brightness Sun altitude
Rises 05:28:34 0° 198° (SSW) 3,095 ? -6.7°
Reaches altitude 10° 05:31:33 10° 217° (SW) 2,176 ? -6.0°
Maximum altitude 05:34:34 17° 257° (WSW) 1,752 ? -5.3°
Drops below altitude 10° 05:37:37 10° 297° (WNW) 2,173 ? -4.6°
Sets 05:40:36 0° 317° (NW) 3,090 ? -3.9°
